Regional Weather Roundup
Issued by NWS

Home | Current Version | Previous Version | Graphics & Text | Print | Product List | Glossary On
Versions: 1 2 3 4 5 6 7 8 9 10 11 12 13 14 15 16 17 18 19 20 21 22 23 24 25 26 27 28 29 30 31 32 33 34 35 36 37 38 39 40 41 42 43 44 45 46 47 48 49 50
000
ASUS43 KLMK 121910
RWRKY
KENTUCKY REGIONAL WEATHER ROUNDUP
NATIONAL WEATHER SERVICE LOUISVILLE KY
200 PM EST FRI FEB 12 2016

NOTE "FAIR" INDICATES FEW OR NO CLOUDS BELOW 12,000 FEET
WITH NO SIGNIFICANT WEATHER AND/OR OBSTRUCTIONS TO VISIBILITY.

KYZ001>023-026-027-061>063-070>075-122000-
WESTERN AND SOUTH CENTRAL KENTUCKY

CITY           SKY/WX    TMP DP  RH WIND       PRES   REMARKS
PADUCAH        MOSUNNY   38  26  62 NW10      30.24F WCI  31
HENDERSON      CLOUDY    30  21  69 W15       30.24R WCI  19
OWENSBORO      CLOUDY    31  26  81 NW12      30.22F WCI  22
HOPKINSVILLE   CLOUDY    37  28  70 NW12      30.20F WCI  29
BOWLING GREEN  CLOUDY    35  28  75 NW3       30.19F
GLASGOW        CLOUDY    32  27  80 W7        30.17F WCI  26
$$

KYZ024-025-028>034-038-045-046-053-122000-
NORTH CENTRAL KENTUCKY

CITY           SKY/WX    TMP DP  RH WIND       PRES   REMARKS
LOUISVILLE/SDF CLOUDY    33  20  58 W13       30.15F WCI  24
LOUISVILLE/LOU CLOUDY    32  20  61 W14       30.15F WCI  22
FORT KNOX      CLOUDY    32  22  66 W10       30.13F WCI  24
$$

KYZ035>037-039>044-047>052-055>060-089>105-122000-
NORTHEAST KENTUCKY

CITY           SKY/WX    TMP DP  RH WIND       PRES   REMARKS
LEXINGTON      CLOUDY    31  21  66 W13       30.09F WCI  21
COVINGTON      FLURRIES  27  17  66 W14       30.09F WCI  16
FRANKFORT      CLOUDY    31  18  58 W8        30.10F WCI  23
$$

KYZ054-064>069-076>088-106>120-122000-
SOUTHEAST KENTUCKY

CITY           SKY/WX    TMP DP  RH WIND       PRES   REMARKS
JACKSON        CLOUDY    30  20  66 VRB3      30.05F
LONDON         CLOUDY    29  23  78 W10       30.10F WCI  20
SOMERSET       CLOUDY    30  25  80 W6        30.14F WCI  24
MIDDLESBORO    CLOUDY    32  28  86 N3        30.10F
MONTICELLO     CLOUDY    32  26  78 W6        30.15F WCI  26
$$




USA.gov is the U.S. government's official web portal to all federal, state and local government web resources and services.